User: anonymous   Login
Location: Kings Park
(40.8862°N, 73.2573°W)
Time: 09:12:33
(UTC+00:00)
Language:

CORIOLIS - Orbit

View from above orbital plane
View from above orbital plane
View from above satellite
View from above satellite

Ground track
Ground track

The orbit data is extracted from the following two-line orbital elements,

1 27640U 03001A   21018.89200404 -.00000017  00000-0  12586-4 0  9997
2 27640  98.7246  31.0118 0014899 134.7131 287.5335 14.19058639933994
Epoch (UTC): 18 January 2021 21:24:29
Eccentricity: 0.0014899
inclination: 98.7246°
perigee height: 818 km
apogee height: 839 km
right ascension of ascending node: 31.0118°
argument of perigee: 134.7131°
revolutions per day: 14.19058639
mean anomaly at epoch: 287.5335°
orbit number at epoch: 93399

The dashed part of the orbit path shows where the satellite is in the earth's shadow,  

DLR